Location: Bittkow
(50.3000°N, 19.0000°E)
Time: 05:26:09
(UTC+00:00)

MSX - Pass Details

Date: 19 September 2020
Orbit: 895 x 906 km, 98.8° (Epoch: 20 October)

Event Time Altitude Azimuth Distance (km) Brightness Sun altitude
Rises 03:18:42 0° 10° (N) 3,546 7.3 -11.4°
Reaches altitude 10° 03:21:16 10° 3° (N) 2,600 6.5 -11.0°
Maximum altitude 03:26:33 38° 297° (WNW) 1,352 4.4 -10.2°
Drops below altitude 10° 03:31:48 10° 231° (SW) 2,580 5.7 -9.4°
Enters shadow 03:32:19 - 229° (SW) 2,766 5.8 -9.3°
